Regional Weather Roundup
Issued by NWS

Home | Current Version | Previous Version | Text Only | Print | Product List | Glossary Off
Versions: 1 2 3 4 5 6 7 8 9 10 11 12 13 14 15 16 17 18 19 20 21 22 23 24 25 26 27 28 29 30 31 32 33 34 35 36 37 38 39 40 41 42 43 44 45 46 47 48 49 50

000
ASUS43 KMPX 281201
RWRMN
WEATHER ROUNDUP FOR MINNESOTA
NATIONAL WEATHER SERVICE TWIN CITIES/CHANHASSEN MN
700 AM CDT SAT MAR 28 2015


NOTE: "FAIR" INDICATES FEW OR NO CLOUDS BELOW 12,000 FEET WITH NO
SIGNIFICANT WEATHER AND/OR OBSTRUCTIONS TO VISIBILITY. N/A MEANS
CURRENT SKY AND/OR WEATHER CONDITIONS ARE NOT AVAILABLE.

MNZ060>063-068>070-281300-
   Twin Cities Metro

CITY           SKY/WX    TMP DP  RH WIND       PRES   REMARKS
TWIN CITIES    CLEAR     20   9  62 SE5       30.23R WCI  13
6HR MIN TEMP:  20; 6HR MAX TEMP:  25;

ST PAUL        CLEAR     21  13  71 SE5       30.25R WCI  15
CRYSTAL        CLEAR     19  11  70 CALM      30.22R
BLAINE         CLEAR     16  12  86 CALM      30.22R
LAKEVILLE      CLEAR     14  10  85 CALM      30.22R
EDEN PRAIRIE   CLEAR     21  10  62 SE3       30.21R
6HR MIN TEMP:  21; 6HR MAX TEMP:  26;

SOUTH ST PAUL  CLEAR     20  13  75 CALM      30.24R
LAKE ELMO      FAIR      18  14  86 CALM      30.24R
$$
MNZ001>005-007-008-013>017-022>024-027-028-281300-
   Northwest Minnesota

CITY           SKY/WX    TMP DP  RH WIND       PRES   REMARKS
BEMIDJI        CLEAR      9   6  89 SE5       30.13S WCI   0
HALLOCK        CLEAR     21  18  86 S10       30.07S WCI  10
ROSEAU         PTCLDY    19  14  79 S6        30.10S WCI  11
WARROAD        PTCLDY    21  16  79 S5        30.10F WCI  15
THIEF RVR FALL CLEAR     23  16  74 S7        30.10F WCI  15
CROOKSTON      PTCLDY    25  18  74 S12       30.12S WCI  14
FOSSTON        CLEAR     19  12  73 SE7       30.12S WCI  10
DETROIT LAKES  CLEAR     21  18  86 SE7       30.14R WCI  13
MOORHEAD       PTCLDY    25  21  86 SE10      30.13R WCI  15
PARK RAPIDS    CLEAR     20  11  68 SE6       30.13R WCI  12
MAHNOMEN       FAIR      20  13  74 SE7       30.12R WCI  11
$$
MNZ006-009>011-018-025>026-281300-
   North Central Minnesota

CITY           SKY/WX    TMP DP  RH WIND       PRES   REMARKS
BAUDETTE       PTCLDY    14  10  84 SE5       30.11S WCI   6
FLAG ISLAND    PTCLDY    16   9  73 SE3       30.10S
INTL FALLS     CLEAR     12   5  73 CALM      30.14R
6HR MIN TEMP:  10; 6HR MAX TEMP:  16;

WASKISH        PTCLDY    12  10  92 CALM      30.14R
BIG FORK       CLEAR     10   9  92 CALM      30.16R
LONGVILLE      CLEAR     10   9  92 CALM      30.17R
GRAND RAPIDS   CLEAR     10   3  72 CALM      30.16R
CRANE LAKE     CLEAR      7   7 100 CALM      30.19R
ORR            CLEAR     12   7  79 CALM      30.14R
COOK           CLEAR      7   3  85 CALM      30.17R
WALKER         FAIR      17   9  71 S3        30.15R
$$
MNZ012-019>021-037-281300-
   Northeast Minnesota

CITY           SKY/WX    TMP DP  RH WIND       PRES   REMARKS
DULUTH         CLEAR     13   7  77 VRB3      30.18R
6HR MIN TEMP:  13; 6HR MAX TEMP:  20;

ELY            CLEAR      5   1  85 CALM      30.17S
HIBBING        CLEAR      4   0  83 CALM      30.18R
EVELETH        CLEAR      7   3  85 CALM      30.19R
DULUTH HARBOR  CLEAR     19  16  86 CALM      30.25R
TWO HARBORS    CLEAR     12   7  79 CALM      30.20R
SILVER BAY     CLEAR      7   3  85 CALM      30.20R
GRAND MARAIS     N/A     11   7  84 NW5       30.24R WCI   3
G MARAIS ARPRT PTCLDY     0  -8  71 W3        30.16R
$$
MNZ029>031-032-039>041-046>048-054>057-064-281300-
   West Central Minnesota

CITY           SKY/WX    TMP DP  RH WIND       PRES   REMARKS
FERGUS FALLS   CLEAR     25  16  68 SE9       30.17R WCI  15
WHEATON        CLEAR     21  21 100 SE6       30.16R WCI  14
MORRIS         CLEAR     25  21  86 SE8       30.14R WCI  16
ALEXANDRIA     PTCLDY    22  16  78 SE7       30.15R WCI  13
ELBOW LAKE     FAIR      21  17  84 SE8       30.13S WCI  12
WADENA         CLEAR     18  12  79 SE3       30.14S
GLENWOOD       PTCLDY    23  18  80 SE5       30.15S WCI  17
APPLETON       CLOUDY    30  27  86 SE7       30.15R WCI  23
BENSON         CLEAR     25  19  80 S6        30.16R WCI  18
ORTONVILLE     MOCLDY    27  25  93 SE8       30.13R WCI  18
MADISON        CLOUDY    30  27  86 SE9       30.14R WCI  22
WILLMAR        FAIR      25  19  80 E7        30.18R WCI  17
$$
MNZ033>034-036-042>043-049>051-058-059-281300-
   Central Minnesota

CITY           SKY/WX    TMP DP  RH WIND       PRES   REMARKS
ST CLOUD       FAIR      17  12  80 SE3       30.20R
6HR MIN TEMP:  17; 6HR MAX TEMP:  25;

SAUK CENTRE    FAIR      20  15  79 SE5       30.17R WCI  14
PAYNESVILLE    CLEAR     19  14  79 E3        30.19R
AITKIN         CLEAR     14   9  79 CALM      30.17R
PINE RIVER     CLEAR     12  10  92 CALM      30.20R
BRAINERD       FAIR      13   9  84 CALM      30.18R
STAPLES        CLEAR     16  10  79 CALM      30.16R
LONG PRAIRIE   FAIR      19  16  86 CALM      30.17R
LITTLE FALLS   CLEAR     18  10  73 CALM      30.19R
LITCHFIELD     CLEAR     23  16  74 CALM      30.20R
BUFFALO        CLEAR     19  14  79 CALM      30.22R
MAPLE LAKE     FAIR      19  17  89 CALM      30.21R
$$
MNZ037-044-045-052-053-281300-
   East Central Minnesota

CITY           SKY/WX    TMP DP  RH WIND       PRES   REMARKS
PRINCETON      CLEAR     16  12  86 CALM      30.20R
MORA           CLEAR     14  12  92 CALM      30.22R
CAMBRIDGE      CLEAR     18  10  73 CALM      30.20R
RUSH CITY      CLEAR     15  12  90 CALM      30.22R
MOOSE LAKE     CLEAR     12  10  92 CALM      30.19R
HINCKLEY       FAIR      14  10  85 CALM      30.22R
CLOQUET        CLEAR     10   7  85 CALM      30.19R
MCGREGOR       CLEAR     14  10  85 CALM      30.19R
$$
MNZ071>073-080-081-089-090-097-098-281300-
   Southwest Minnesota

CITY           SKY/WX    TMP DP  RH WIND       PRES   REMARKS
MONTEVIDEO     CLOUDY    28  27  93 S7        30.17R WCI  21
GRANITE FALLS  CLOUDY    29  26  86 SE7       30.18R WCI  22
CANBY          CLOUDY    29  27  93 SE8       30.14R WCI  21
MARSHALL       CLOUDY    28  23  80 SE8       30.15R WCI  20
REDWOOD FALLS  CLOUDY    30  25  81 SE6       30.16R WCI  24
OLIVIA         CLEAR     27  23  86 SE6       30.17R WCI  20
PIPESTONE      MOCLDY    27  25  93 S8        30.10R WCI  18
WINDOM         CLOUDY    28  27  93 CALM      30.15R
WORTHINGTON    CLOUDY    27  23  86 SE7       30.14R WCI  19
JACKSON        CLOUDY    30  27  86 SE5       30.15R WCI  25
TRACY          CLOUDY    29  28  93 SE6       30.14S WCI  23
SLAYTON        CLOUDY    28  26  93 CALM      30.13R
$$
MNZ065>067-074>077-082>085-091>093-281300-
   South Central Minnesota

CITY           SKY/WX    TMP DP  RH WIND       PRES   REMARKS
MANKATO        MOCLDY    21  16  79 SE7       30.20R WCI  13
NEW ULM        CLOUDY    27  19  74 SE5       30.18R WCI  21
ST JAMES       CLOUDY    28  23  80 SE7       30.19R WCI  21
FAIRMONT       CLOUDY    27  19  74 SE7       30.17R WCI  19
GLENCOE        CLOUDY    21  14  75 E3        30.20R
FARIBAULT      CLEAR     18  10  73 CALM      30.21R
OWATONNA       CLEAR     18  12  79 E3        30.20R
WASECA         PTCLDY    21  18  86 E6        30.21R WCI  14
ALBERT LEA     CLOUDY    25  18  74 S7        30.19S WCI  17
$$
MNZ078>079-086>088-094>096-281300-
   Southeast Minnesota

CITY           SKY/WX    TMP DP  RH WIND       PRES   REMARKS
ROCHESTER      CLEAR     15   9  76 SE7       30.22R WCI   5
6HR MIN TEMP:  14; 6HR MAX TEMP:  19;

RED WING       FAIR      16  12  86 CALM      30.24R
STANTON        CLEAR     14   9  81 CALM      30.22R
DODGE CENTER   PTCLDY    14   9  79 SE5       30.20R WCI   6
WINONA         CLEAR     19  18  93 CALM      30.27R
AUSTIN         MOCLDY    19  16  86 SE3       30.21R
PRESTON        CLEAR     16   8  70 S3        30.23R
$$
ABBREVIATIONS USED IN REMARKS
   TC - TEMPERATURES IN CELSIUS
  WCI - WIND CHILL INDEX
   HX - HEAT INDEX
  VSB - VISIBILITY
$$


USA.gov is the U.S. government's official web portal to all federal, state and local government web resources and services.